Weather in Ryazantsevo

Russia / Kaluga Oblast     55°16′28″N   36°28′11″E
temp.,
°C
wind,
m/s
gust,
m/s
humid.,
%
clouds,
%
prec.,
mm/h
press.,
hPa
HPBL,
m
13 may, thu
thu1300:00+8sse389799 0.1 1018453
03:00+6ese249825 0.1 101980
06:00+7ese389454 0.0 1019254
09:00+12ese597190 0.0 1018672
12:00+15ese61064100 0.1 10161463
15:00+14se61283100 2.2 10151261
18:00+13sse48862 0.8 1014817
21:00+9se2396100 1.2 101560
14 may, fri
fri1400:00+9se2596100 0.0 101690
03:00+8sse23960 0.0 101649
06:00+9se2697100 0.0 1016158
09:00+14se3682100 0.0 1016412
12:00+19se4660100 0.0 10151123
15:00+18se5978100 1.1 1013972
18:00+13ne4799100 17.3 1012236
21:00+13ene2498100 23.1 101087
15 may, sat
sat1500:00+13se31098100 0.1 1009218
03:00+13se389832 1.3 1009186
06:00+13se279926 0.0 1008192
09:00+18sse4787100 0.0 1008544
12:00+20ssw6966100 0.5 10081486
15:00+19ssw58664 0.6 10091483
18:00+18ssw487341 0.6 10101007
21:00+13s38947 0.6 1011171
16 may, sun
sun1600:00+11s239565 0.0 101152
03:00+11sse23971 0.1 101256
06:00+11s389721 0.1 1012294
09:00+15sw468184 0.1 1013735
12:00+16wsw467675 0.0 1014873
15:00+20sw456099 0.1 10141465
18:00+19sw136678 0.0 1014841
21:00+16s117492 0.0 101515
17 may, mon
mon1700:00+12ese2287100 0.0 101515
03:00+11e229265 0.0 101624
06:00+12e2791100 0.0 1015180
09:00+19e4768100 0.0 1015540
12:00+23ese585857 0.0 10131131
15:00+25ese586093 0.0 10121228
18:00+24ese5106462 0.0 10111083
21:00+18ese414779 0.0 1011442